Regional Weather Roundup
Issued by NWS Little Rock, AR

Home | Current Version | Previous Version | Text Only | Print | Product List | Glossary On
Versions: 1 2 3 4 5 6 7 8 9 10 11 12 13 14 15 16 17 18 19 20 21 22 23 24 25 26 27 28 29 30 31 32 33 34 35 36 37 38 39 40 41 42 43 44 45 46 47 48
000
ASUS44 KLZK 031905
RWRLZK

WEATHER ROUNDUP FOR ARKANSAS
NATIONAL WEATHER SERVICE LITTLE ROCK AR
200 PM CDT WED JUN 03 2015

NOTE: "FAIR" INDICATES FEW OR NO CLOUDS BELOW 12,000 FEET WITH NO
SIGNIFICANT WEATHER AND/OR OBSTRUCTIONS TO VISIBILITY.

ARZ001-003-010-029-032000-
NORTHWEST ARKANSAS

CITY           SKY/WX    TMP DP  RH WIND       PRES   REMARKS
FAYETTEVILLE   PTSUNNY   80  67  64 S8        29.99F
FORT SMITH     MOSUNNY   84  64  50 VRB3      29.96F HX  85
HARRISON       MOSUNNY   79  66  64 VRB3      30.01F
BENTONVILLE    MOSUNNY   81  64  57 SW6       30.00F
ROGERS         MOSUNNY   82  66  58 S6        30.01F
SILOAM SPGS    MOSUNNY   82  64  54 S7        30.00F
HIGHFILL       MOSUNNY   82  67  60 VRB7      29.99F
SPRINGDALE     MOSUNNY   81  66  61 SW7       30.01F
$$

ARZ004-005-016-032000-
NORTH CENTRAL ARKANSAS

CITY           SKY/WX    TMP DP  RH WIND       PRES   REMARKS
BATESVILLE     CLOUDY    73  63  68 SW3       30.03S
FLIPPIN        MOSUNNY   79  66  65 E5        30.00S
MTN HOME       PTSUNNY   75  64  68 VRB3      30.01F
$$

ARZ040-041-032000-
WEST CENTRAL ARKANSAS

CITY           SKY/WX    TMP DP  RH WIND       PRES   REMARKS
MENA           PTSUNNY   82  68  61 SW3       30.00F HX  85
MOUNT IDA      CLOUDY    81  66  60 VRB3      29.98F
$$

ARZ009-017-025-026-028-032000-
NORTHEAST ARKANSAS

CITY           SKY/WX    TMP DP  RH WIND       PRES   REMARKS
CORNING        LGT RAIN  73  61  64 N8        30.04S
JONESBORO      CLOUDY    75  60  59 CALM      30.02F
NEWPORT        PTSUNNY   77  62  59 E3        30.03F
WALNUT RIDGE   SUNNY     75  57  53 E6        30.02F
BLYTHEVILLE    CLOUDY    75  61  61 NE7       30.02F
NW BLYTHEVILLE PTSUNNY   77  61  57 NE3       30.02F
$$

ARZ022-023-033-042-044-032000-
CENTRAL ARKANSAS

CITY           SKY/WX    TMP DP  RH WIND       PRES   REMARKS
LITTLE ROCK    CLOUDY    78  62  57 E7        30.01F
N LITTLE ROCK  CLOUDY    76  66  71 S3        30.01F
JACKSONVILLE   PTSUNNY   77  64  65 VRB2      30.01F
SEARCY         CLOUDY    76  64  66 CALM      30.04S
RUSSELLVILLE   PTSUNNY   80  66  62 VRB3      29.99F
CLINTON        CLOUDY    75  66  73 CALM      30.03S
$$

ARZ036-032000-
EAST ARKANSAS

CITY           SKY/WX    TMP DP  RH WIND       PRES   REMARKS
WEST MEMPHIS   PTSUNNY   75  61  61 NE3       30.00F
$$

ARZ050-053-066-070-073-032000-
SOUTHWEST ARKANSAS

CITY           SKY/WX    TMP DP  RH WIND       PRES   REMARKS
ARKADELPHIA    FAIR      82  68  62 NE5       29.99F HX  85
CAMDEN         PTSUNNY   86  63  45 CALM      29.98F HX  87
TEXARKANA      MOSUNNY   83  66  56 CALM      29.97F HX  85
EL DORADO      CLOUDY    81  63  54 E3        29.98F
DE QUEEN       PTSUNNY   84  68  58 E5        29.96F HX  87
$$

ARZ056-057-069-032000-
SOUTHEAST ARKANSAS

CITY           SKY/WX    TMP DP  RH WIND       PRES   REMARKS
PINE BLUFF     CLOUDY    78  63  59 VRB3      30.01F
STUTTGART      PTSUNNY   79  64  61 MISG      30.01F
MONTICELLO     PTSUNNY   79  66  64 VRB6      29.99F

$$





USA.gov is the U.S. government's official web portal to all federal, state and local government web resources and services.